GEFSNGP_500_meanwind_252.txt.gz
Wind_Speed
18 18 18 18 18 18 18 18 18 16 16 15 16 17 17 17 17 17 17 17 17 16 16 16 15 16 16 15 15 16 16 15 15 16 16 16 16 17 17 17 17 17 17 16
20 19 20 20 19 19 19 19 19 18 16 16 17 17 18 18 18 18 17 17 17 17 17 17 16 16 16 16 16 16 16 16 16 16 17 17 17 17 17 17 18 18 18 17
20 21 22 20 18 19 20 19 20 19 18 18 18 18 18 19 19 18 18 17 18 18 18 17 17 17 17 17 17 17 17 17 17 17 18 18 18 18 18 18 18 18 18 18
23 23 23 20 20 20 21 21 21 21 20 20 19 19 19 19 19 18 18 18 18 18 18 18 18 18 18 19 19 19 18 18 18 18 19 19 19 19 19 19 19 19 19 18
26 26 24 21 21 21 22 21 21 22 21 21 20 20 20 19 19 19 18 19 19 19 19 19 20 20 20 20 20 20 20 19 19 20 20 19 19 19 19 19 19 20 20 20
27 28 26 22 22 22 23 22 21 22 22 22 22 21 20 21 21 21 20 20 21 21 21 21 21 22 22 22 21 22 21 21 21 20 20 20 20 20 20 20 20 20 20 20
28 28 27 24 23 23 23 21 21 22 23 23 23 22 22 22 22 22 22 22 22 22 22 22 23 23 23 23 23 22 22 22 22 22 22 21 21 21 21 21 21 21 21 21
29 29 27 25 24 24 23 23 23 23 24 24 24 24 23 23 23 23 23 23 23 24 24 24 24 24 24 24 24 23 23 23 23 23 22 22 22 22 22 22 22 22 22 22
31 29 28 27 26 26 25 25 25 25 25 26 26 26 25 25 24 24 24 25 25 25 25 24 25 25 24 24 24 23 24 24 24 24 24 23 23 23 24 24 24 23 23 23
31 30 28 28 28 27 27 26 26 26 26 26 26 26 26 26 26 26 26 26 26 25 25 24 25 25 25 24 24 24 25 25 25 25 25 24 24 24 24 25 25 25 24 25
32 30 30 29 29 29 29 29 28 28 28 27 27 26 27 27 27 27 27 26 26 26 26 25 25 25 25 25 25 25 25 24 25 25 25 25 25 25 25 26 26 26 26 26
33 32 32 32 31 31 31 30 30 29 29 28 28 28 27 27 27 27 27 26 26 26 26 26 26 26 26 26 26 26 25 25 25 26 26 26 26 26 26 27 27 28 28 29
34 34 34 33 33 32 32 32 31 30 30 29 28 28 28 27 27 27 27 27 27 27 27 27 26 26 26 26 26 26 26 26 26 26 27 27 28 28 28 29 29 30 30 30
35 35 35 35 34 34 33 33 33 32 31 30 30 29 29 28 27 28 28 27 28 28 28 27 27 27 26 26 27 27 27 27 27 27 27 28 28 28 28 29 30 31 32 32
35 36 35 35 35 35 34 34 34 33 33 32 31 31 31 30 29 29 28 28 28 28 28 28 28 27 27 27 27 26 26 26 27 27 28 29 29 29 29 29 30 31 32 33
36 36 35 34 34 34 34 34 34 33 33 33 32 32 31 31 30 30 29 29 29 29 28 28 28 28 28 28 28 28 28 28 28 28 29 29 30 30 30 31 31 32 32 33
37 36 36 35 34 34 34 34 34 34 34 34 33 33 33 32 31 31 31 31 30 30 30 30 30 29 29 29 29 29 29 29 29 29 30 30 31 31 32 32 33 33 33 34
37 36 35 35 35 34 34 34 35 35 34 34 34 34 34 34 34 33 33 32 32 31 31 31 31 31 30 30 30 30 30 30 30 30 31 31 32 33 33 34 34 35 35 36
35 36 36 35 34 34 34 34 34 34 35 35 35 35 34 34 34 34 34 34 33 33 33 32 32 32 32 31 31 32 32 32 32 32 33 33 33 34 35 35 36 36 36 36
34 35 35 35 34 34 34 34 34 33 33 34 34 35 34 34 35 35 35 35 34 34 35 34 34 34 34 33 33 33 34 34 35 35 35 35 35 36 36 36 37 37 37 38
34 34 34 34 34 33 33 33 33 33 33 33 34 34 34 34 34 35 35 36 35 36 36 36 35 35 35 36 36 35 36 36 36 37 37 37 37 37 37 37 37 37 37 38
34 33 33 33 33 33 33 33 33 33 33 33 33 33 34 34 35 36 36 36 36 36 36 37 36 36 36 36 36 36 36 37 37 37 37 37 38 38 38 38 38 38 38 39
34 34 33 33 33 33 33 33 33 33 33 33 33 33 34 34 35 36 36 36 37 37 37 36 36 36 36 36 36 37 37 37 37 37 37 37 38 38 38 39 39 40 40 41
33 34 34 34 34 33 33 33 33 34 34 34 33 33 34 34 35 36 36 36 36 36 37 37 37 36 36 36 37 37 37 37 37 37 37 38 38 38 39 40 40 41 41 41
33 34 34 35 34 34 34 34 34 34 33 34 34 34 35 35 35 35 35 35 35 36 37 37 37 37 37 37 37 38 37 38 37 37 38 38 38 39 40 40 41 42 42 42
33 33 34 34 35 35 35 35 35 34 34 35 35 35 35 35 35 35 35 35 36 37 37 37 38 38 38 38 38 38 38 39 38 39 39 39 39 40 40 41 41 42 42 41
33 33 34 34 34 35 35 35 35 35 35 35 35 35 34 34 34 35 36 36 37 37 37 38 38 38 38 38 38 39 39 39 39 39 40 40 40 41 41 41 42 42 42 42

GEFSNGP_500_meanwind_258.txt.gz
Wind_Speed
18 17 18 18 17 17 17 17 17 16 16 16 16 16 16 16 16 17 16 16 16 16 16 15 16 16 16 16 16 16 16 16 16 16 16 17 17 16 16 16 16 16 16 17
20 19 19 19 17 18 18 17 17 17 16 16 17 17 17 17 17 17 17 16 16 16 16 16 16 16 17 16 17 17 17 17 17 17 17 17 17 17 17 16 17 17 17 17
21 20 21 20 18 18 18 18 18 18 17 17 18 18 18 18 17 17 17 17 17 17 17 18 18 18 18 18 18 18 18 18 18 18 18 18 18 18 17 17 18 18 18 18
22 22 22 18 18 19 19 19 19 19 19 19 19 19 19 19 19 19 18 18 18 17 17 18 18 19 19 19 19 19 19 19 20 19 19 19 19 19 19 19 19 18 18 19
24 24 23 20 19 20 21 20 20 20 21 21 21 20 20 20 20 20 20 19 19 19 19 19 20 21 20 20 20 20 21 21 20 20 20 20 20 20 20 20 20 20 19 20
25 25 25 23 21 21 22 21 20 21 21 22 21 21 21 21 21 21 21 21 21 21 21 21 21 21 21 21 21 21 21 21 21 21 21 21 21 21 21 21 21 21 21 21
27 27 26 25 23 22 23 22 22 22 22 22 22 22 22 21 21 21 21 21 21 21 22 22 22 22 22 22 22 22 22 22 22 22 22 22 22 22 22 22 23 23 23 23
29 29 28 26 25 25 24 24 24 24 24 24 23 23 23 23 23 22 22 22 22 22 22 22 22 22 22 22 22 22 22 22 23 23 23 23 23 23 23 23 23 23 24 24
31 30 29 28 28 27 26 26 25 25 25 25 25 24 24 24 24 24 23 23 23 23 23 23 24 24 23 23 23 23 23 23 23 24 24 24 24 24 25 25 24 24 24 25
32 31 30 30 30 29 29 28 27 27 27 27 26 26 26 25 25 26 25 25 24 24 24 24 25 25 25 24 24 24 24 24 24 25 25 26 26 26 26 26 26 26 26 26
32 32 31 31 31 31 31 30 29 29 28 28 28 27 27 26 27 27 27 26 26 25 25 25 25 25 25 25 25 25 25 25 25 25 26 26 26 26 26 26 26 26 26 27
33 32 33 33 32 32 31 31 30 30 30 30 29 29 29 29 28 28 28 27 27 27 27 27 27 26 26 26 25 25 25 25 25 26 26 26 26 25 25 25 26 26 26 26
35 35 35 34 33 33 33 32 32 31 31 31 31 31 31 30 30 29 28 28 28 28 28 28 28 28 27 27 27 27 27 26 27 27 27 26 26 26 26 26 25 25 25 26
36 36 36 35 35 34 34 34 33 32 32 32 32 32 32 31 31 30 29 28 28 29 29 29 29 29 29 29 29 29 29 29 28 28 28 27 28 27 27 26 26 26 26 26
36 36 36 35 35 34 34 34 34 33 33 33 33 32 32 31 31 30 29 29 30 30 30 30 31 31 31 31 30 30 30 30 30 29 29 29 28 27 27 27 27 27 27 27
36 36 35 35 34 34 34 34 34 34 33 34 34 33 32 32 32 31 31 30 31 31 31 32 32 31 31 31 31 31 31 30 30 29 29 28 28 28 28 28 28 29 29 29
35 35 35 35 34 34 34 34 34 34 34 34 34 34 33 32 33 33 32 32 32 32 32 32 32 32 32 31 31 31 31 30 30 30 29 29 29 29 30 30 30 30 30 31
35 34 34 34 35 34 34 34 34 34 34 35 35 35 34 34 34 34 33 33 32 32 32 33 34 33 32 32 32 31 31 31 31 31 30 30 30 30 30 30 31 31 31 31
33 33 33 33 33 34 34 34 34 34 34 35 35 35 34 34 33 33 33 33 33 33 33 33 33 34 33 32 32 32 32 32 32 31 30 31 31 31 31 31 32 32 32 33
33 33 33 33 33 34 34 34 34 33 34 34 34 34 33 33 33 33 33 33 33 33 34 34 34 34 35 35 34 34 34 33 32 32 32 32 32 33 33 33 32 33 33 34
32 33 33 33 34 34 34 34 33 33 33 34 33 33 33 33 33 33 33 32 32 33 34 34 34 35 35 35 34 34 34 34 33 33 33 33 33 34 34 34 34 34 34 35
31 32 33 34 34 34 35 35 34 34 33 33 33 33 33 33 33 33 33 32 33 34 34 34 35 35 35 35 35 35 34 34 34 34 34 34 34 34 35 35 35 35 36 36
31 31 32 32 33 33 33 34 34 33 33 33 33 33 33 33 33 33 33 33 33 34 34 34 35 35 35 36 35 35 35 35 35 34 34 35 35 35 35 36 36 36 37 38
30 31 31 31 31 31 32 32 33 33 33 33 33 34 33 33 33 33 33 34 34 34 35 35 35 35 36 36 35 35 35 35 35 34 34 35 35 36 36 36 36 36 37 38
30 30 31 31 32 32 32 32 32 33 33 33 33 33 34 34 34 34 35 35 35 35 35 35 35 36 36 36 36 35 35 35 35 34 34 35 35 36 36 36 36 37 37 38
29 30 30 31 31 31 31 31 31 31 32 33 33 33 34 34 35 35 35 35 35 35 35 35 35 35 35 36 36 36 36 35 35 35 35 36 36 36 36 36 36 37 37 37
29 29 29 30 30 30 31 31 31 31 32 32 32 33 33 33 34 35 35 35 34 34 34 35 35 35 35 35 36 36 36 36 36 36 36 36 37 37 37 37 37 37 38 38

GEFSNGP_500_meanwind_264.txt.gz
Wind_Speed
20 20 20 20 20 19 19 19 19 17 18 19 19 19 20 20 19 19 18 18 18 18 17 17 17 18 18 18 18 18 18 18 18 18 18 18 18 18 18 18 19 19 19 18
21 21 21 21 20 20 20 20 20 19 19 19 19 19 20 21 20 20 19 19 19 18 18 18 18 18 19 19 19 19 19 19 19 20 20 20 20 19 20 20 20 19 19 19
22 21 22 22 20 21 21 21 21 21 20 20 20 20 21 22 22 21 20 20 20 20 19 19 19 19 19 19 19 19 19 19 19 19 20 20 20 20 20 20 20 19 20 20
23 23 24 21 21 21 21 21 21 21 22 22 23 22 23 23 22 22 21 21 21 20 20 20 20 20 20 20 19 20 19 19 19 19 19 20 20 20 21 21 21 20 21 21
25 25 25 23 22 22 22 22 22 23 22 23 23 24 24 24 23 22 22 22 22 21 21 21 21 21 21 21 21 21 20 20 20 20 20 21 21 21 21 22 22 22 21 22
27 27 26 23 23 24 24 24 24 23 23 24 24 24 25 25 24 23 23 22 22 22 22 22 22 22 22 22 22 21 20 21 21 21 21 22 22 22 22 22 22 22 22 23
28 29 28 26 25 25 25 25 25 25 25 24 24 25 26 25 25 24 24 23 23 24 23 23 23 23 23 23 22 22 22 22 22 22 23 23 23 23 23 23 23 23 23 24
30 30 29 28 27 28 28 28 27 27 27 27 27 27 27 27 27 27 26 25 25 25 25 25 25 25 24 24 24 24 24 23 23 24 24 24 24 24 24 24 25 25 24 25
30 30 30 29 30 30 29 29 30 29 29 29 29 28 28 28 28 28 28 28 28 28 27 27 27 26 26 25 26 26 25 25 25 25 25 25 25 25 25 25 25 25 25 25
33 32 32 31 30 32 32 32 32 32 31 31 30 30 30 30 30 30 30 30 30 30 29 29 28 28 28 27 27 27 26 25 25 25 25 25 25 25 26 26 25 25 25 25
35 34 34 33 33 33 34 34 33 33 33 32 32 32 32 32 32 32 32 32 32 32 31 31 30 30 29 29 28 28 27 27 27 27 27 27 27 27 27 27 27 27 26 26
37 36 37 37 36 36 36 35 35 35 34 34 33 33 34 34 33 33 33 33 33 33 32 32 31 30 30 30 29 29 29 30 29 29 29 29 28 29 29 29 28 28 27 27
39 39 39 39 39 39 38 36 35 35 35 34 34 35 35 35 34 34 34 34 33 33 33 32 32 32 32 32 32 31 31 31 31 31 30 30 30 31 30 29 29 29 29 29
39 40 39 39 39 39 38 37 36 35 35 35 35 35 35 35 35 34 34 34 34 34 34 33 33 33 33 33 33 33 33 33 33 33 33 32 32 32 31 31 30 30 30 30
38 39 39 39 39 38 38 37 37 36 36 35 35 35 35 35 35 35 35 35 34 34 34 34 34 33 33 34 34 34 34 34 34 34 34 34 33 33 33 32 32 31 31 31
37 38 38 38 38 38 38 38 37 37 36 36 36 36 36 36 36 35 35 35 35 34 34 34 34 34 34 35 34 34 34 35 35 34 34 34 34 34 34 33 33 32 32 32
36 36 37 37 38 38 38 38 37 36 36 36 37 37 37 37 36 36 36 35 36 36 36 36 35 36 35 36 36 35 35 35 35 34 35 35 35 35 34 34 34 34 34 33
34 35 36 36 37 37 37 37 37 37 37 37 37 37 37 37 37 36 36 35 36 36 36 36 36 37 36 36 37 36 36 35 35 35 35 35 35 35 35 35 35 35 34 34
32 34 35 35 36 36 37 37 37 36 36 36 36 36 36 36 36 36 36 36 35 35 35 36 37 37 36 36 36 35 35 35 35 35 35 35 34 35 35 35 35 35 35 34
33 34 34 35 36 36 36 35 36 36 36 36 36 35 35 35 35 35 35 35 34 34 34 35 36 35 35 35 36 35 35 35 35 35 35 34 34 35 35 35 35 35 35 35
32 34 34 35 35 35 35 34 35 35 35 36 36 35 35 35 35 35 35 34 33 34 34 35 35 35 35 35 35 35 35 35 35 35 34 35 35 35 35 36 36 35 35 36
32 33 34 34 34 34 34 35 35 36 36 36 36 36 36 35 35 35 35 35 34 34 34 34 35 35 34 35 35 35 35 35 35 35 35 36 36 36 36 36 36 35 35 35
32 33 34 34 33 34 34 35 35 36 36 36 36 35 35 35 35 35 35 35 35 35 35 34 35 34 35 35 35 35 35 36 36 36 36 37 37 36 36 36 36 36 36 35
31 31 32 32 32 33 33 33 34 35 35 34 35 35 35 34 34 35 35 35 35 35 35 35 35 35 36 36 35 35 35 35 36 36 37 37 36 36 36 36 36 36 36 36
30 31 31 31 32 32 32 33 33 33 34 34 34 34 35 35 35 35 35 34 34 34 34 34 35 35 36 36 36 36 36 36 36 36 36 36 36 36 37 37 36 36 36 36
31 31 31 31 31 32 32 32 33 33 33 34 34 34 35 35 34 34 34 34 34 34 34 34 34 35 36 35 35 35 36 36 36 36 36 35 35 36 37 37 37 37 37 37
31 31 31 31 32 32 32 32 32 32 32 33 33 33 33 33 34 34 34 34 33 34 35 35 35 35 35 35 35 35 35 35 35 35 35 35 35 36 36 36 37 37 37 37

GEFSNGP_500_meanwind_270.txt.gz
Wind_Speed
17 17 17 17 17 18 18 18 18 17 17 15 15 15 15 15 15 16 15 15 15 15 16 16 16 16 16 16 15 16 16 16 15 15 16 16 16 16 16 16 16 16 16 16
18 18 19 19 19 19 19 19 18 17 17 17 17 17 17 17 17 17 16 16 15 16 16 16 16 16 17 16 16 17 17 16 16 16 16 16 16 16 16 16 17 17 17 17
19 19 19 20 18 19 18 18 19 19 18 19 19 19 19 18 17 17 17 17 16 17 17 17 17 17 17 17 17 17 17 17 17 17 17 16 16 16 16 17 17 17 18 17
21 21 22 18 19 19 19 20 20 20 20 21 20 20 19 19 19 19 18 18 18 18 19 19 18 19 19 19 18 18 18 18 18 18 17 17 17 17 17 17 18 17 17 17
22 23 23 20 20 19 20 21 20 20 20 21 20 20 21 21 20 19 19 20 20 21 21 21 20 20 20 20 19 19 19 19 19 19 19 18 18 18 18 18 18 18 18 19
24 25 24 21 20 20 21 22 21 22 22 22 22 22 22 22 22 22 22 22 22 23 23 22 21 21 21 20 20 20 20 20 20 20 19 19 19 19 19 19 19 20 20 20
25 25 24 23 22 22 23 23 22 23 23 23 23 24 23 24 25 25 25 24 24 24 24 23 23 23 22 22 22 22 22 21 21 21 21 21 21 21 21 21 21 21 21 20
27 27 25 25 24 24 24 24 24 24 24 25 25 25 25 26 26 26 26 26 25 25 25 25 24 24 24 24 24 24 24 23 23 22 23 23 23 22 22 22 22 22 22 21
29 29 28 27 26 26 26 26 27 27 26 26 27 27 27 27 27 27 27 27 27 27 27 26 26 25 25 25 25 25 25 25 25 24 24 24 24 24 24 24 24 24 24 24
31 30 30 29 29 28 28 28 28 29 29 28 28 29 30 29 29 29 29 29 29 29 28 28 28 27 27 27 27 27 26 27 26 26 26 26 26 26 26 26 27 27 26 26
33 32 32 31 30 30 31 31 30 31 32 32 31 31 31 31 31 31 31 31 31 30 30 30 29 29 29 29 29 28 28 28 28 28 28 28 28 28 28 28 28 28 28 28
33 33 33 32 32 32 33 34 34 34 34 33 33 32 32 32 32 32 32 32 32 32 32 31 31 30 30 30 30 30 30 30 30 30 30 30 30 30 30 30 30 30 30 29
34 34 34 33 33 34 34 35 35 35 35 34 34 34 34 33 33 33 33 33 33 33 32 32 32 31 31 31 32 32 32 31 31 32 32 32 32 32 32 32 32 31 31 30
35 35 35 34 34 35 35 34 34 34 34 34 34 35 34 34 34 33 33 33 33 33 33 33 32 32 32 32 33 33 33 33 33 33 33 33 33 33 33 33 33 32 32 32
35 35 35 35 35 35 35 35 35 35 35 35 35 36 36 35 34 33 33 33 34 34 33 33 32 32 33 33 33 33 33 33 33 34 34 34 34 34 34 34 33 33 32 32
33 34 34 34 35 34 34 34 35 35 35 35 35 36 36 35 35 35 34 34 34 33 33 33 32 32 33 33 34 33 33 33 33 33 33 34 34 34 34 34 34 33 33 32
32 32 33 34 34 34 34 34 35 35 35 35 35 36 36 35 35 35 35 35 34 34 34 33 33 33 34 34 34 33 33 34 34 34 34 34 34 34 34 34 34 33 33 33
30 31 32 32 32 33 34 35 35 35 35 35 35 36 37 36 35 35 36 37 36 35 34 34 34 33 34 34 34 34 34 34 34 34 34 34 34 34 34 33 33 34 34 34
30 30 31 32 32 33 33 34 35 35 35 36 36 36 37 37 37 36 36 36 36 35 35 35 35 35 35 35 35 35 35 34 34 34 35 35 34 34 34 33 33 33 34 34
29 30 31 32 32 33 33 34 34 35 36 36 37 37 37 37 37 37 36 35 34 34 34 35 35 35 35 35 35 34 34 34 34 35 35 35 34 34 34 34 34 34 34 34
30 31 31 32 32 32 33 33 34 34 35 35 36 36 35 35 35 36 36 35 34 34 33 33 34 34 33 33 33 34 34 34 34 34 34 34 34 34 34 34 34 35 35 35
30 31 31 32 32 32 33 33 34 34 34 34 34 34 33 33 33 34 34 34 34 34 33 33 33 33 33 33 33 33 33 33 33 33 33 34 34 34 34 34 35 35 35 35
30 30 30 30 31 31 32 33 34 34 33 32 32 32 33 33 33 33 33 34 34 34 34 33 33 34 34 34 33 33 33 34 34 33 33 34 34 34 34 34 35 35 35 35
31 30 30 30 31 31 31 31 32 33 33 33 32 32 33 34 34 34 34 34 34 34 34 34 33 33 33 34 33 33 34 34 34 34 34 35 35 35 35 35 35 34 34 34
31 31 31 30 31 31 31 31 31 31 32 32 33 33 33 33 33 33 33 33 33 34 34 34 33 33 33 34 34 34 34 34 34 34 34 35 35 34 34 34 34 34 34 33
31 31 31 31 31 31 31 31 31 31 31 31 32 32 32 32 32 32 33 33 33 33 33 33 33 33 34 34 34 34 34 34 34 34 34 34 34 34 34 33 33 34 34 33
31 31 31 32 32 32 31 31 31 32 32 32 32 32 32 32 32 32 33 33 33 33 33 33 33 34 34 34 34 33 33 33 33 32 32 33 33 33 33 33 33 32 33 33

GEFSNGP_500_meanwind_276.txt.gz
Wind_Speed
20 20 20 20 20 20 20 20 19 18 17 16 17 17 17 16 16 16 16 16 15 16 16 16 16 16 16 16 17 17 17 17 17 17 17 17 18 18 18 18 18 18 18 18
22 22 22 21 20 20 20 20 20 19 18 18 18 18 17 16 16 16 16 16 17 17 17 17 17 17 18 18 18 18 17 17 17 17 17 17 18 18 18 18 18 18 18 18
23 23 23 23 21 21 22 22 21 20 18 19 19 19 18 18 17 17 18 18 19 19 19 19 19 19 19 19 19 18 18 18 18 18 18 19 19 19 19 19 19 18 18 18
25 24 25 23 22 22 22 23 22 21 20 20 20 20 20 20 20 20 20 20 20 21 21 21 21 21 21 21 21 20 20 20 19 19 20 20 20 20 20 20 19 19 19 19
27 26 26 23 23 23 23 23 22 22 22 22 22 22 22 22 22 23 22 22 22 23 23 22 22 22 22 22 22 21 21 21 21 21 20 21 21 21 21 20 20 20 20 20
28 28 27 24 23 23 23 23 23 23 23 23 23 24 23 24 24 24 24 24 24 24 24 24 24 24 24 23 22 22 22 22 22 21 21 21 21 21 21 21 21 21 21 21
30 29 28 26 24 24 24 23 23 23 23 24 25 25 24 25 25 25 25 25 26 26 25 25 25 25 25 24 24 23 23 23 23 23 22 22 22 21 22 22 22 22 22 22
29 30 28 26 26 26 25 25 24 24 24 25 25 25 25 25 25 25 25 26 27 27 27 26 26 26 25 25 25 25 25 25 24 24 24 23 23 23 23 23 23 24 23 24
29 29 29 28 27 27 27 27 26 26 26 25 25 25 26 26 26 27 27 27 28 28 28 28 28 27 27 26 27 26 26 26 26 26 26 25 25 25 25 25 25 26 26 26
30 30 30 30 29 29 29 29 29 29 28 28 27 27 28 28 28 28 28 28 28 29 29 29 29 30 30 29 29 29 28 27 27 28 27 27 27 27 27 27 27 27 28 28
32 31 32 32 32 32 32 31 31 30 30 31 30 30 29 29 29 29 30 30 30 30 30 30 31 31 32 31 31 31 31 30 30 29 29 29 29 29 29 29 29 29 29 29
33 32 32 32 32 33 33 34 34 33 32 33 33 32 33 32 32 32 32 32 32 32 31 31 31 31 32 32 32 32 32 32 32 32 32 32 31 31 31 31 31 31 31 31
34 33 33 32 32 33 34 34 35 34 34 34 35 35 35 34 34 34 33 33 33 33 32 32 32 32 33 34 34 33 33 33 34 33 33 34 34 33 33 33 33 33 33 33
34 35 34 33 32 33 34 35 34 34 34 34 35 35 35 35 34 35 35 35 34 34 33 33 33 33 34 35 35 34 34 34 34 34 33 33 34 34 34 34 34 34 34 34
33 35 35 34 33 32 33 33 34 35 35 35 34 35 35 35 35 35 35 35 35 35 35 34 35 35 35 35 35 35 34 34 34 34 34 33 34 34 34 34 34 34 34 34
33 33 34 34 33 33 33 33 33 33 34 35 34 34 35 35 34 34 34 35 35 35 35 35 35 35 35 35 35 35 35 34 34 34 33 33 34 34 33 33 33 33 33 34
32 32 33 34 34 33 33 34 34 34 35 35 35 35 35 35 35 35 36 36 36 35 35 35 35 35 34 34 35 35 35 35 34 34 34 34 34 33 33 33 33 33 33 34
32 32 32 33 33 33 33 33 33 34 35 36 36 36 35 35 36 36 36 36 36 36 36 36 36 35 35 35 35 34 35 35 35 34 34 34 34 33 33 33 33 34 34 35
31 31 32 32 33 33 33 33 33 33 34 36 35 35 36 36 36 36 36 36 36 36 36 36 36 36 36 36 35 34 34 34 34 34 34 34 33 34 34 34 34 34 35 35
30 31 31 32 32 33 33 33 33 33 33 34 35 36 36 36 37 37 37 36 37 37 37 37 37 37 36 36 36 35 34 34 34 35 35 34 34 34 34 35 35 35 35 35
30 30 31 31 31 32 32 33 33 33 33 34 34 35 36 36 37 37 37 36 36 36 37 37 37 37 37 36 35 34 33 33 34 35 35 35 34 34 34 34 35 35 35 35
31 31 31 31 31 31 31 32 32 33 33 34 34 35 35 35 36 36 36 36 36 36 36 37 36 36 36 35 34 33 33 34 34 34 34 34 34 34 34 34 35 34 35 35
30 30 30 31 31 32 32 32 32 32 33 33 34 34 34 34 34 35 35 35 35 35 35 36 36 35 35 35 34 34 34 34 34 34 34 34 34 34 34 34 34 34 34 34
30 31 31 31 31 31 31 32 32 33 33 33 34 34 34 33 33 33 34 34 34 34 34 35 35 35 35 35 34 34 34 34 33 33 33 34 34 34 34 34 34 33 33 33
31 31 31 32 31 30 31 31 32 32 33 33 33 33 33 33 33 33 33 33 34 34 34 33 34 34 34 34 33 34 33 33 33 34 34 34 34 34 34 34 34 33 33 33
31 32 32 32 32 32 32 32 32 32 33 33 33 33 33 33 33 33 34 34 35 35 34 34 34 34 34 33 33 33 33 32 33 33 34 34 34 35 35 35 34 34 34 34
31 32 32 32 32 33 33 33 33 32 33 33 33 33 33 33 34 34 34 35 35 34 34 34 34 34 33 33 32 32 32 32 32 32 32 33 33 33 33 33 33 33 33 33

GEFSNGP_500_meanwind_282.txt.gz
Wind_Speed
21 21 21 21 20 20 20 20 19 18 17 16 17 17 16 16 16 15 15 15 15 16 16 16 17 17 18 18 18 18 19 19 19 19 19 19 19 19 19 19 19 19 19 19
22 23 23 22 21 21 21 20 20 19 18 17 18 17 17 17 16 16 16 16 16 17 18 18 18 19 19 19 19 19 19 19 19 20 20 20 20 20 19 19 20 20 19 19
23 23 24 24 22 21 21 21 21 20 18 18 19 18 18 18 18 18 18 18 19 19 20 20 20 20 20 20 20 20 20 20 20 20 20 20 20 20 20 20 20 20 19 19
25 24 25 24 23 23 22 21 21 21 20 20 20 19 20 20 20 20 20 20 21 21 21 21 21 21 21 21 21 21 22 21 21 20 20 19 19 20 20 20 20 20 20 20
25 25 26 25 23 23 23 23 22 22 22 22 21 21 22 21 21 22 21 21 22 22 23 23 22 22 22 22 22 22 22 22 21 21 21 20 20 20 20 20 20 20 21 21
24 25 25 24 23 23 23 23 23 23 23 23 23 23 23 22 22 23 23 22 22 23 23 23 24 24 24 23 23 23 24 23 23 22 22 21 21 21 22 22 22 22 22 22
24 24 24 23 22 22 23 23 23 24 24 24 24 24 24 23 23 24 24 24 24 24 24 24 24 24 25 25 25 25 25 25 25 24 23 23 23 23 23 23 23 23 23 23
24 24 24 23 22 23 24 24 24 25 25 25 25 25 25 25 24 24 25 25 25 26 26 25 25 25 25 26 26 26 26 25 25 25 25 25 25 25 25 25 25 25 25 25
25 26 24 24 24 24 24 25 25 25 25 26 26 26 26 27 27 27 27 27 27 27 27 28 28 27 28 27 27 27 27 27 27 27 27 26 26 26 26 26 26 27 27 27
27 27 27 26 26 26 26 27 27 28 27 27 28 27 28 29 28 29 29 29 29 30 30 30 29 29 29 29 28 28 27 28 28 28 28 27 27 27 27 27 27 27 28 28
28 28 29 28 28 27 27 28 29 29 29 29 29 29 29 29 30 30 30 30 30 31 31 31 31 30 30 30 30 29 28 28 28 28 28 29 29 29 29 29 30 30 29 29
29 29 30 29 29 29 29 28 29 30 30 31 31 30 30 29 29 30 31 31 31 31 31 31 31 32 32 32 31 31 30 30 30 30 30 30 31 31 31 31 31 31 31 30
29 30 30 30 30 30 31 30 30 30 31 31 31 31 31 31 31 32 32 32 32 33 33 33 33 33 33 33 33 33 33 32 32 33 33 33 32 33 33 33 33 32 32 32
30 30 30 30 30 29 29 30 30 30 31 31 31 31 32 32 32 33 33 34 34 34 34 34 34 34 34 34 34 34 34 34 33 33 34 34 34 33 33 33 33 32 32 32
29 29 29 29 29 29 30 30 30 30 30 30 32 32 32 33 33 34 34 34 35 35 34 34 34 34 34 35 35 35 35 34 34 34 34 35 35 34 34 33 33 32 32 32
28 28 28 28 28 29 29 30 30 30 30 30 32 32 32 33 34 34 34 34 35 35 35 34 34 34 35 35 35 35 35 35 35 35 35 35 35 35 34 33 32 31 31 31
28 27 28 28 28 29 29 29 29 30 30 31 32 32 32 32 33 33 33 33 34 34 35 35 36 35 35 35 35 35 35 35 35 35 35 34 34 34 33 33 32 32 32 32
27 27 28 28 29 29 29 29 29 29 29 30 30 32 32 32 32 33 33 33 33 34 35 36 36 36 36 36 36 35 35 36 35 35 35 34 34 34 33 33 33 33 33 33
28 28 28 28 29 29 28 28 28 29 29 30 29 30 31 31 32 33 34 34 33 33 34 36 36 35 35 36 36 36 35 35 35 35 35 34 34 34 34 34 34 33 33 33
28 29 29 29 29 29 29 29 29 29 30 30 30 30 30 30 31 32 34 34 34 35 35 35 35 36 36 36 36 36 36 36 35 35 34 34 34 34 34 34 34 34 34 34
28 28 28 29 30 30 30 30 30 30 30 30 30 30 30 30 31 31 32 32 33 34 35 35 35 36 36 35 35 35 35 35 35 35 35 34 34 34 34 35 34 34 33 33
28 28 28 29 29 30 31 31 31 30 30 30 30 31 31 31 31 31 31 31 32 33 34 34 34 34 35 35 35 35 35 35 35 35 35 35 35 35 35 35 35 34 34 33
29 29 29 30 30 30 30 30 30 31 31 31 31 31 32 32 32 32 32 32 32 32 33 34 34 33 33 34 34 34 34 34 35 35 35 35 35 35 34 35 35 34 34 34
29 30 30 31 31 31 30 30 31 31 32 32 31 31 32 32 32 32 32 33 32 32 33 33 33 33 33 33 34 34 34 34 34 34 35 34 34 34 34 34 34 34 33 33
30 30 30 30 31 31 31 31 32 32 32 32 32 32 32 32 32 32 32 32 33 33 33 32 33 33 33 33 33 34 34 33 33 33 34 34 34 34 34 34 34 33 32 32
31 31 30 31 31 32 32 32 32 32 31 31 31 32 31 32 32 32 33 33 33 33 33 33 33 33 33 33 33 33 33 33 33 33 33 33 33 33 33 33 33 32 31 31
32 32 32 32 32 33 33 33 32 31 31 31 31 32 32 32 32 32 33 33 33 33 33 32 32 32 32 32 32 32 33 33 32 32 32 32 32 31 31 31 31 31 30 29

GEFSNGP_500_meanwind_288.txt.gz
Wind_Speed
22 22 23 24 24 24 23 23 23 23 24 24 25 23 21 21 20 21 20 19 20 20 20 20 20 20 20 20 21 21 20 20 20 20 20 20 20 20 20 20 20 20 21 21
24 24 25 25 25 25 25 25 26 26 25 26 24 23 23 22 22 21 21 21 21 21 21 21 20 20 20 21 21 21 20 21 20 20 20 20 20 20 21 21 21 21 21 22
24 23 25 25 25 26 26 26 26 26 26 26 24 24 24 23 23 22 22 22 23 23 22 22 22 21 21 21 22 22 22 21 21 21 21 21 21 21 21 21 22 22 22 22
24 24 26 24 25 26 26 26 26 26 27 26 25 25 25 24 24 23 23 23 23 23 23 23 23 22 22 22 22 22 23 23 23 23 22 22 22 22 23 22 22 22 22 22
24 25 26 25 25 25 25 26 26 26 27 27 26 27 26 25 25 25 24 24 24 24 24 24 24 24 24 24 24 24 24 24 24 24 24 24 23 23 24 23 23 23 22 23
25 26 26 25 25 25 25 26 26 26 26 26 26 27 26 25 25 26 26 26 25 25 25 25 25 25 25 25 25 25 24 24 25 24 24 24 24 25 25 24 24 23 23 23
26 27 27 27 25 25 26 26 26 26 26 26 26 26 26 26 25 26 26 26 26 26 26 25 25 25 25 25 25 25 25 25 25 25 26 26 26 26 25 25 25 24 24 24
26 27 28 27 26 26 27 26 26 26 26 27 26 26 26 27 26 27 27 27 27 27 27 27 27 27 26 26 26 26 27 27 27 27 26 25 26 26 26 26 26 25 26 25
26 27 28 27 27 27 27 27 28 28 28 28 28 28 28 29 29 28 28 29 29 28 28 28 29 29 28 28 27 27 28 28 28 28 27 27 27 27 27 27 27 27 27 27
28 28 29 28 28 29 29 29 28 29 29 30 30 30 30 30 31 31 30 30 31 31 30 30 30 30 30 30 30 29 29 29 30 29 29 29 28 28 28 29 29 29 29 29
28 28 30 30 30 30 30 30 29 29 30 31 31 31 31 32 32 32 33 32 32 32 32 32 32 32 31 31 31 31 31 31 31 32 31 31 30 30 31 31 31 31 30 30
29 29 30 31 30 31 31 31 31 31 30 31 31 32 33 33 33 33 33 33 33 33 33 33 33 33 33 33 34 34 34 33 33 33 33 33 33 32 31 32 32 32 32 32
31 31 32 32 31 31 32 31 31 32 32 32 32 32 33 33 33 33 33 33 33 34 33 34 34 35 35 35 35 35 35 35 35 35 34 34 34 33 33 33 33 33 33 32
32 32 33 33 32 31 32 31 31 31 32 33 32 32 32 32 33 33 33 33 34 34 34 34 34 35 35 35 35 36 36 36 36 36 36 36 36 36 35 35 34 33 33 33
32 33 33 33 32 31 31 31 31 31 31 32 32 32 32 32 33 33 33 34 35 35 35 35 35 35 35 36 36 36 36 37 37 37 37 37 37 37 37 36 36 35 34 34
31 32 32 31 31 31 30 30 31 31 31 32 32 32 32 32 33 33 33 34 35 35 35 35 35 35 36 36 36 36 37 36 36 36 37 37 36 36 36 36 36 35 35 35
30 31 31 31 31 31 31 31 31 31 31 32 32 32 32 33 33 33 33 34 34 34 35 35 35 35 35 35 35 36 36 36 36 36 36 36 36 36 35 35 36 36 36 36
30 30 31 31 31 31 30 30 31 31 31 31 31 32 32 33 33 33 33 33 33 33 34 34 34 34 34 33 33 34 35 35 35 35 36 37 36 36 35 35 35 36 36 36
31 31 31 31 31 32 31 31 31 31 31 32 32 32 31 32 32 33 33 33 33 33 33 33 33 34 34 34 33 34 35 35 36 36 35 35 35 36 36 36 35 36 36 36
31 31 32 32 32 32 32 32 32 32 32 32 32 32 32 32 32 32 32 32 32 33 32 33 33 34 34 34 34 34 34 35 35 35 35 35 35 35 35 36 36 36 36 36
31 31 31 32 32 32 33 33 33 33 32 32 31 31 32 32 32 33 33 32 32 33 33 33 33 34 34 34 34 34 34 34 34 35 35 35 35 35 35 35 36 36 35 35
31 32 32 32 32 32 32 32 33 33 33 32 32 32 32 31 32 32 33 33 33 33 33 34 34 34 33 34 34 34 35 35 35 36 36 35 35 35 35 35 35 35 35 35
32 32 32 32 31 31 31 31 31 32 32 32 32 32 32 32 32 32 32 33 33 34 34 34 34 33 33 34 34 34 34 35 36 35 35 35 35 35 35 34 34 34 35 35
33 33 32 32 31 31 31 31 32 32 32 33 33 33 33 33 33 33 34 34 34 34 34 34 33 34 34 34 34 34 34 35 35 34 33 33 33 33 34 33 33 33 34 34
33 32 32 31 31 31 32 32 32 33 33 33 33 33 34 34 34 34 34 34 34 33 33 33 33 33 33 33 34 34 34 34 33 34 33 33 32 32 32 32 32 32 32 32
32 32 32 32 32 31 32 32 32 32 33 33 34 34 34 34 34 34 34 33 33 33 33 33 32 32 33 34 34 33 33 33 33 33 33 33 32 31 31 30 30 31 31 31
32 32 32 32 32 32 32 33 33 33 33 34 34 33 33 34 34 34 34 33 33 33 32 32 33 33 32 32 32 32 32 32 32 32 32 31 31 30 29 29 29 29 30 30

GEFSNGP_500_meanwind_294.txt.gz
Wind_Speed
19 19 20 19 19 20 21 21 22 22 22 22 23 22 22 21 21 21 21 21 21 20 20 20 20 21 21 21 22 22 21 21 20 20 20 20 20 20 20 20 20 20 20 20
20 20 21 21 20 20 21 22 23 23 23 23 24 24 23 23 23 23 22 22 21 20 21 21 20 20 20 21 21 21 21 21 21 21 21 21 21 21 21 21 21 21 21 21
22 22 22 21 20 21 23 22 23 23 23 23 24 24 24 24 24 24 24 24 24 23 21 21 20 20 20 21 22 22 22 22 22 21 22 22 22 23 23 22 22 22 22 22
22 23 23 21 21 22 23 23 23 23 23 23 23 23 24 24 25 25 25 26 25 24 22 21 20 21 21 21 22 22 23 22 23 23 23 24 24 24 24 24 24 24 24 24
23 23 23 21 21 22 23 23 23 23 24 24 24 24 24 24 25 25 25 25 24 24 23 22 21 21 22 23 23 22 23 23 23 23 24 24 24 24 24 25 25 25 25 25
24 25 24 21 22 23 24 24 23 24 24 24 24 24 24 24 24 24 24 24 23 23 23 23 23 22 22 23 24 23 23 24 24 24 25 25 25 25 25 25 26 26 26 26
26 27 25 23 23 24 24 23 23 24 24 24 24 24 24 24 25 25 25 24 24 24 23 23 24 24 24 23 23 24 24 24 25 25 26 26 25 25 26 27 27 27 28 28
27 27 26 25 24 24 24 24 24 24 24 24 24 24 25 25 25 26 25 25 25 24 24 24 25 25 25 25 24 25 26 26 26 26 27 27 27 27 28 28 28 28 28 29
26 26 26 25 25 25 25 25 25 25 25 25 24 24 25 25 26 27 26 26 26 25 25 26 26 26 26 27 27 27 27 28 28 28 28 28 28 29 29 29 29 29 29 29
26 25 25 25 25 25 25 25 26 25 26 26 25 25 25 26 26 27 28 27 27 27 27 27 27 28 28 28 28 29 29 29 29 29 29 30 30 30 31 31 31 31 31 31
26 26 26 27 26 26 26 26 25 25 26 26 27 26 27 27 28 28 29 29 28 28 28 28 28 28 29 29 30 30 30 30 30 30 31 31 31 31 32 32 33 33 33 32
27 27 28 27 27 27 27 26 26 26 26 27 28 28 28 29 29 29 29 29 29 29 29 29 29 29 29 30 30 31 32 31 30 30 31 32 32 32 33 33 33 34 33 32
28 28 29 28 28 28 28 28 28 28 28 28 29 29 29 29 30 30 30 29 29 30 30 30 30 30 31 31 31 31 31 32 31 31 32 32 32 33 33 33 33 33 33 32
28 28 28 28 29 29 29 29 29 29 29 29 29 29 30 30 30 30 31 31 30 30 30 30 30 30 31 31 32 32 32 32 32 33 33 33 34 34 34 34 34 34 34 33
28 29 28 28 28 29 29 30 30 30 30 30 29 30 30 30 30 31 31 31 31 31 31 31 30 30 31 31 31 32 33 33 33 33 34 34 34 34 34 35 34 34 34 33
28 29 28 28 28 28 28 29 29 30 30 30 30 30 31 31 31 31 31 31 31 31 31 31 31 31 31 31 31 32 32 33 34 34 34 34 35 34 34 34 34 34 34 34
29 29 29 29 29 29 29 29 29 30 30 30 30 31 31 32 32 31 31 30 30 30 30 30 30 31 31 31 32 32 32 32 33 34 33 33 33 34 34 34 34 34 33 33
29 29 30 30 30 30 29 29 30 30 30 30 31 31 32 31 31 31 31 31 31 31 30 30 30 30 30 31 31 31 31 31 32 33 33 32 33 33 33 32 31 32 32 32
30 30 30 30 30 31 31 31 31 30 30 30 31 31 31 31 31 31 31 31 30 30 30 30 30 30 30 30 31 31 31 32 32 33 33 33 33 33 32 31 31 31 31 32
30 30 30 31 31 31 31 31 31 31 31 31 31 31 31 30 30 30 30 30 30 30 30 30 30 31 31 31 31 31 32 32 33 33 33 33 33 32 31 31 30 30 31 32
29 30 30 31 31 31 31 31 31 31 31 31 31 31 31 30 30 30 30 30 30 30 30 30 31 31 31 31 32 32 32 32 32 33 33 33 33 32 31 30 30 30 31 31
29 30 30 31 31 30 30 31 31 31 31 31 31 31 30 30 30 30 30 30 31 31 31 32 32 32 32 32 32 33 33 33 32 32 31 32 32 32 32 32 31 31 32 32
29 30 30 31 31 31 31 31 32 31 31 31 31 31 30 30 30 30 31 31 32 32 32 32 33 33 33 33 33 33 33 33 32 31 31 31 31 32 32 32 32 32 32 32
31 31 31 31 31 31 31 31 31 31 30 30 30 31 31 31 32 32 33 32 32 33 33 33 33 33 33 34 33 33 33 32 32 31 31 31 31 32 32 33 33 33 33 33
31 31 31 31 31 31 31 31 31 30 30 29 30 31 31 32 32 32 33 33 33 33 33 33 33 33 34 34 33 32 32 31 31 31 31 31 31 31 32 32 33 33 32 32
31 31 31 31 31 30 31 31 31 30 30 30 30 31 31 32 32 32 32 33 33 32 32 32 33 33 33 33 33 33 32 32 32 32 31 31 31 31 31 31 31 31 31 31
31 30 30 30 30 31 31 31 31 30 31 31 30 31 31 31 31 32 32 32 32 32 32 32 32 32 33 33 33 33 33 32 32 32 31 31 31 31 31 30 30 30 30 30

GEFSNGP_500_meanwind_300.txt.gz
Wind_Speed
19 19 19 20 20 20 20 20 20 19 20 19 20 21 21 21 21 21 22 22 23 23 23 23 23 24 23 23 23 22 22 22 22 22 21 22 21 21 21 22 22 22 22 22
20 20 21 21 21 21 21 21 21 21 21 21 21 22 22 22 22 22 22 23 23 23 23 24 24 24 24 24 24 24 23 23 23 23 23 23 23 23 22 22 22 22 22 23
22 22 23 22 21 22 23 23 23 23 21 21 22 22 23 23 23 23 23 23 23 23 23 24 24 24 23 23 23 23 23 24 24 24 23 23 23 23 23 23 23 24 24 24
24 24 25 22 23 24 24 24 24 23 22 22 23 23 23 23 23 23 23 24 24 24 24 24 24 24 23 23 23 23 23 23 23 23 23 23 23 24 24 24 25 25 25 25
27 27 26 24 24 24 25 25 25 25 24 24 24 24 24 24 24 24 24 24 24 24 25 25 25 25 24 24 24 24 24 24 24 24 24 24 25 25 26 26 26 26 26 27
28 28 28 25 25 25 26 25 24 25 25 24 24 25 24 25 25 24 25 24 24 24 25 25 25 25 25 25 25 25 25 25 26 25 25 25 26 27 27 28 28 27 28 28
29 29 28 26 26 26 27 25 25 25 25 25 25 25 25 25 26 26 26 25 25 25 25 25 25 25 25 25 26 26 26 27 27 27 27 26 26 27 28 28 28 28 28 29
29 29 28 27 27 27 27 27 26 25 25 26 26 25 25 26 26 26 26 26 26 26 26 25 25 25 25 26 27 27 27 27 28 28 28 28 28 27 28 29 29 29 29 29
29 29 29 29 29 28 28 28 27 27 26 26 26 27 26 26 27 27 26 26 26 26 26 26 26 26 26 27 28 27 28 28 28 28 28 28 28 28 28 29 29 30 30 30
29 28 29 30 30 29 29 28 28 27 27 27 27 28 28 27 28 28 28 28 27 27 27 27 27 27 27 28 28 29 29 29 29 29 29 29 29 29 29 30 31 31 31 31
29 29 29 30 30 29 28 28 28 28 28 28 28 29 29 29 28 28 28 28 28 28 27 27 28 28 29 29 29 29 29 29 30 30 31 31 31 31 32 31 31 32 32 32
29 29 30 29 29 29 28 28 29 29 28 28 29 30 30 30 29 29 29 29 29 28 28 27 28 29 29 30 29 30 30 31 31 31 31 31 32 32 33 33 32 33 33 33
30 30 30 29 29 29 29 29 29 29 29 29 29 30 30 30 30 30 30 30 30 29 29 29 29 29 30 30 30 30 30 31 31 31 31 31 31 32 32 33 33 33 32 33
31 31 31 30 29 29 29 29 30 30 30 30 30 30 31 31 31 31 30 30 30 30 30 30 30 30 31 30 30 30 30 31 31 30 30 31 31 31 31 32 32 32 32 32
31 31 31 30 30 29 30 30 30 31 31 31 31 31 31 31 31 31 31 31 31 31 30 30 30 30 31 30 30 30 30 30 30 30 30 31 31 31 32 32 33 33 33 33
30 30 31 31 30 30 30 30 30 30 31 31 31 31 31 31 31 31 31 31 31 30 30 30 30 30 30 30 31 31 31 31 30 31 31 31 32 32 32 33 33 33 33 33
30 30 30 30 30 29 29 29 29 29 30 30 31 31 32 31 31 32 32 31 31 30 29 29 30 31 31 31 31 31 31 31 31 31 31 31 32 32 32 32 33 33 33 33
30 30 30 30 29 29 29 30 30 30 30 30 31 32 32 32 32 32 32 31 31 31 31 31 31 31 32 32 32 32 32 32 31 32 32 32 32 32 32 32 33 33 33 33
29 30 30 30 30 30 30 31 31 31 31 32 32 32 32 32 32 32 32 32 31 31 32 32 32 32 32 32 32 32 33 32 32 31 32 32 32 33 32 32 31 32 31 32
30 30 30 30 30 30 30 31 31 31 32 32 32 31 31 31 31 31 31 31 31 32 32 32 32 32 32 32 33 33 33 33 33 33 32 32 32 32 32 32 32 32 32 32
29 29 29 30 30 30 31 31 32 32 31 31 31 31 31 31 31 31 31 31 31 32 32 32 33 33 32 32 32 33 33 33 33 33 32 32 31 31 32 33 32 32 32 32
29 29 30 30 31 31 31 32 32 32 32 32 31 31 31 31 31 32 32 32 32 33 33 33 32 32 32 33 33 33 33 33 33 33 32 32 32 32 32 32 32 32 32 32
30 31 31 31 32 32 33 33 33 33 33 33 33 32 31 31 31 32 31 31 32 32 32 32 32 33 33 33 33 33 33 33 33 33 33 33 33 33 32 32 31 31 32 32
31 32 32 32 33 33 33 33 33 34 34 33 32 32 32 31 31 31 31 31 31 32 32 32 32 33 33 33 33 33 33 33 32 32 33 33 33 33 33 32 32 32 32 32
33 33 33 33 33 33 33 33 34 33 33 32 32 32 33 33 33 32 32 32 32 32 32 32 33 33 33 33 33 33 34 33 33 33 33 33 33 33 34 34 33 33 33 32
34 34 34 34 34 34 34 34 34 33 33 33 33 33 33 34 34 33 33 33 33 33 34 34 34 34 34 34 34 34 33 33 33 33 33 34 34 34 35 34 34 34 33 33
34 34 34 35 34 34 34 34 34 34 34 34 34 33 33 33 33 34 33 33 33 34 34 34 34 34 33 33 33 33 34 34 34 34 34 35 35 34 34 34 33 33 33 33

GEFSNGP_500_meanwind_306.txt.gz
Wind_Speed
21 21 21 21 21 21 21 21 20 19 20 20 20 21 20 21 21 21 21 21 21 21 21 21 22 22 23 23 23 23 23 23 23 24 24 24 24 24 25 25 25 25 25 25
21 21 21 21 21 22 22 22 22 21 21 20 21 21 21 21 21 21 22 22 22 22 22 22 22 23 23 23 23 23 24 24 24 24 24 25 24 24 25 25 26 26 26 26
22 22 23 22 21 22 22 23 23 23 22 22 22 22 22 22 22 22 22 23 23 23 23 23 23 23 24 24 24 24 24 24 24 24 24 24 24 25 25 25 26 26 26 26
23 24 25 23 22 23 23 24 24 25 24 24 24 23 23 23 23 23 23 23 24 24 24 24 24 24 25 25 25 25 24 24 24 24 24 25 25 25 25 25 26 26 27 27
25 26 26 24 24 24 25 25 25 25 25 25 25 25 24 24 24 24 24 24 24 24 24 24 24 25 25 25 25 25 25 24 24 24 24 24 25 26 27 27 27 27 28 28
26 27 28 26 25 25 26 26 25 26 25 25 25 25 24 24 25 25 25 24 24 24 24 24 24 24 25 25 25 26 26 25 25 25 25 25 25 26 27 27 27 28 28 28
26 28 28 27 27 26 27 26 26 26 26 26 25 25 25 24 25 25 25 25 24 24 24 24 24 24 25 25 25 26 26 26 26 26 25 26 26 25 26 27 28 28 28 29
27 28 28 27 27 27 27 27 27 27 27 26 26 26 26 25 25 25 25 25 25 25 25 25 25 25 25 25 26 26 25 26 26 26 26 26 27 27 27 28 29 29 29 29
27 28 28 27 27 27 27 27 27 27 27 27 26 26 26 26 26 26 25 25 25 25 26 26 26 26 25 26 26 26 26 27 27 26 26 27 27 28 28 28 28 28 29 30
28 28 28 28 27 27 27 27 27 27 27 27 27 27 27 27 27 26 26 26 26 26 26 26 27 27 26 26 27 27 27 27 27 27 27 27 28 28 28 28 28 28 29 29
28 28 28 28 28 28 27 27 27 27 28 28 28 28 28 28 28 27 26 27 27 26 27 27 28 27 27 27 27 28 28 28 27 27 27 28 28 28 28 28 28 28 28 28
28 28 29 28 28 28 27 27 27 28 28 28 29 28 28 27 27 27 27 27 27 27 27 27 28 28 28 28 28 28 27 27 28 27 26 27 27 28 29 29 28 28 29 29
29 29 29 28 28 28 28 28 28 28 28 28 28 28 28 27 28 28 27 28 28 28 28 28 29 29 29 29 28 28 28 28 28 28 27 27 28 28 28 28 29 30 30 31
30 30 29 28 28 28 28 28 28 28 27 27 27 27 27 28 28 29 29 29 29 29 30 30 30 29 29 29 29 29 29 29 29 29 28 28 29 29 30 30 31 31 32 32
31 31 30 29 29 29 29 29 28 28 27 27 27 27 28 28 28 29 30 30 30 30 30 30 30 30 29 29 29 29 29 29 30 30 29 30 30 31 32 32 32 31 32 32
30 30 30 29 29 29 29 29 29 28 28 28 28 28 28 28 29 29 30 30 30 30 30 30 29 29 29 29 29 29 29 29 29 29 30 30 30 30 31 31 31 31 30 31
29 29 29 29 29 29 29 29 29 28 28 28 29 29 29 29 29 29 29 30 30 30 30 30 30 29 29 29 29 29 29 29 29 29 30 31 31 31 31 30 30 30 30 30
28 28 28 28 28 28 27 28 28 28 28 28 28 29 29 29 29 29 30 30 30 30 30 30 30 30 30 30 30 30 30 30 30 30 30 31 31 31 31 31 31 31 30 30
27 27 27 27 27 28 28 28 28 28 28 29 29 29 29 29 29 30 31 31 31 31 30 30 31 31 31 31 31 31 31 31 31 31 31 32 32 32 32 32 31 31 31 31
28 28 28 28 28 28 28 29 29 29 29 29 30 30 30 29 30 30 31 32 32 32 31 32 32 32 32 32 32 32 32 33 32 32 32 33 33 32 32 32 32 32 32 31
29 29 28 29 29 29 29 30 29 29 30 30 30 31 31 31 31 31 32 32 32 32 32 32 32 32 32 32 32 32 32 32 33 33 33 33 33 33 33 33 33 33 33 32
29 29 29 29 29 29 30 30 30 30 31 31 31 31 32 32 31 32 32 32 32 32 32 32 32 32 32 32 32 31 32 32 32 32 32 32 32 33 33 33 33 33 32 32
28 29 29 29 30 30 30 30 30 31 31 31 31 31 32 32 32 31 31 31 32 32 32 32 32 32 32 32 32 32 32 32 32 32 32 32 32 33 33 32 32 32 32 32
28 29 29 30 30 31 31 31 31 31 32 32 32 32 33 33 33 32 32 32 32 32 33 32 32 32 32 33 33 33 33 33 33 33 33 33 33 33 33 32 32 32 32 33
29 30 30 30 30 31 31 31 32 32 33 33 33 33 33 33 33 33 33 32 32 32 32 32 33 33 33 34 33 33 33 33 33 33 33 33 33 33 33 33 33 33 33 33
30 30 30 30 30 31 31 31 32 32 32 33 33 32 32 32 32 32 32 32 32 32 32 32 33 33 33 33 32 32 32 32 32 33 33 33 33 33 33 33 33 33 33 33
31 31 31 31 31 31 31 31 31 31 31 31 31 31 30 30 30 30 31 31 31 31 31 31 31 32 32 32 32 31 31 32 32 32 32 33 33 33 33 33 33 33 33 34

GEFSNGP_500_meanwind_312.txt.gz
Wind_Speed
22 22 22 22 22 22 23 23 23 22 24 24 22 23 24 25 25 25 24 23 23 23 23 23 24 23 23 24 24 24 24 24 24 24 24 25 24 25 24 24 24 24 24 24
22 22 23 23 23 24 24 24 24 24 25 25 26 26 25 25 25 25 25 24 24 23 23 24 24 24 24 24 24 24 24 24 25 25 24 25 25 24 25 25 25 25 25 25
23 23 25 25 23 23 24 25 25 26 26 27 28 28 27 26 26 26 25 25 25 24 24 24 24 24 23 23 24 24 25 25 25 25 25 24 24 24 25 24 24 25 25 25
24 24 26 24 22 23 25 26 27 27 28 28 29 28 28 28 27 26 26 26 26 26 26 25 25 25 24 24 24 25 25 25 25 25 25 25 25 26 25 26 26 26 26 26
25 26 27 25 24 24 26 27 27 27 28 29 29 29 29 29 28 27 27 27 27 27 26 25 25 25 25 25 25 25 26 26 26 26 26 26 26 26 27 27 26 26 26 26
25 26 28 26 25 25 26 28 27 28 29 29 29 29 30 29 28 28 28 28 28 27 27 26 26 26 25 26 26 26 26 26 26 26 27 27 27 27 27 27 26 26 26 27
26 27 28 26 25 25 26 28 28 28 28 28 29 29 30 29 28 28 28 28 27 27 26 27 27 27 27 27 26 26 26 26 26 27 27 27 27 27 27 27 26 26 25 26
27 28 28 28 27 28 28 28 28 28 29 29 28 28 29 29 29 29 29 28 28 27 27 27 27 27 27 27 27 27 26 26 26 27 27 27 27 27 27 26 26 25 26 26
28 29 29 28 29 29 30 30 29 29 29 28 29 29 28 28 29 29 29 29 28 28 28 28 27 27 27 27 27 27 26 26 26 26 26 26 26 27 26 26 26 27 27 27
29 30 30 30 31 31 31 32 31 30 30 30 29 29 29 29 29 29 29 29 29 28 28 28 28 27 27 27 28 27 27 27 27 26 26 27 27 27 27 28 28 28 28 27
30 30 30 30 32 33 32 31 30 30 31 31 30 30 30 30 29 29 29 29 29 29 29 28 28 28 28 28 28 28 28 28 28 28 28 28 28 27 28 29 29 28 28 28
31 31 32 32 32 32 32 32 32 31 31 31 31 30 30 30 30 29 29 29 30 30 30 29 28 28 28 29 29 29 29 29 29 28 28 28 28 29 29 30 30 29 29 29
34 33 33 33 32 32 32 32 32 32 32 31 31 32 32 31 31 30 29 29 29 29 29 29 29 29 29 30 30 30 30 30 30 30 29 29 29 29 29 30 30 31 31 31
35 34 34 34 34 33 33 32 32 32 32 32 31 32 32 32 32 31 31 30 30 30 30 30 30 30 30 31 32 31 30 30 30 31 31 30 31 30 30 30 31 31 32 32
35 34 34 34 34 33 33 33 33 32 32 31 32 32 32 32 32 31 31 31 30 30 30 30 30 31 31 32 32 32 32 32 32 32 32 31 32 31 31 31 31 31 31 31
34 34 33 33 33 34 34 33 33 33 33 32 32 31 31 31 31 31 31 31 31 30 30 30 31 31 32 32 33 33 33 33 33 33 32 32 32 32 33 32 32 32 31 31
34 33 33 33 33 33 34 33 33 33 33 32 32 31 31 31 31 31 31 31 31 31 31 32 32 32 32 32 33 33 33 33 33 33 34 34 33 33 33 33 32 32 32 31
33 33 33 33 32 32 32 32 32 33 33 32 31 31 31 31 31 31 30 31 31 31 32 32 33 33 33 33 33 33 33 33 33 34 34 35 34 34 33 33 32 32 32 31
32 32 32 32 32 32 31 31 31 31 31 31 32 32 32 32 32 32 32 31 31 31 32 32 33 34 34 34 34 34 33 33 33 34 35 35 34 34 33 33 32 32 32 32
31 32 32 32 32 32 32 31 31 31 32 32 32 32 32 32 32 32 32 32 32 32 32 32 32 33 34 34 35 35 34 34 34 35 34 34 34 34 34 33 34 34 33 33
31 31 32 32 32 32 32 32 32 31 31 32 32 32 32 32 32 33 33 33 33 33 33 33 33 34 34 34 35 35 35 35 34 34 34 34 34 34 34 34 34 34 34 34
30 31 31 31 31 31 32 32 32 31 31 32 32 32 32 33 33 33 34 34 34 34 34 35 35 36 35 35 36 36 36 35 35 34 34 34 34 35 35 35 35 35 35 35
30 30 30 30 30 30 31 31 31 31 32 32 32 32 32 33 33 34 34 35 35 35 35 36 36 36 37 37 36 36 36 36 35 34 34 34 34 35 35 35 35 35 36 36
30 30 30 30 31 30 30 31 31 32 32 32 32 33 33 34 34 34 34 35 35 35 35 36 36 36 36 36 36 36 36 36 35 35 35 35 35 35 36 36 36 36 36 36
30 30 30 30 30 30 30 31 31 32 32 33 33 33 33 34 33 33 33 34 34 35 35 35 36 35 35 35 36 35 35 34 34 33 33 33 34 34 35 36 36 36 36 36
31 31 31 30 30 30 31 31 31 32 32 32 33 33 33 33 33 33 33 33 33 33 33 33 33 33 33 34 34 33 33 33 33 33 33 33 34 34 34 34 35 35 35 35
30 30 30 31 31 31 31 31 32 32 32 32 32 32 32 32 32 32 32 32 32 32 32 32 32 32 32 32 32 32 33 33 33 34 34 33 33 34 34 34 34 34 33 33